VOYAGER:1:PRINTED,ON:,1-OCT-01:16:50:49:V179062S28
START_TIME,STOP_TIME,SECTOR,SCAN_DIR,P32FLUX,P32UNC,A33FLUX,A33UNC,M34FLUX,M34UNC,M35FLUX,M35UNC,H36FLUX,H36UNC
1979-03-03 00:00:11.980 ,1979-03-03 00:00:17.920 ,3,1,0.000E+00,0.000E+00,8.58,6.07,0.000E+00,0.000E+00,0.000E+00,0.000E+00,0.000E+00,0.000E+00
1979-03-03 00:00:18.350 ,1979-03-03 00:00:41.920 ,4,1,8.02,4.63,16.5,4.75,24.4,17.2,42.1,6.83,215.,55.5
1979-03-03 00:00:42.350 ,1979-03-03 00:01:05.920 ,5,1,21.4,7.55,29.8,6.66,25.1,17.8,93.0,8.87,221.,53.5
1979-03-03 00:01:06.350 ,1979-03-03 00:01:29.920 ,6,1,13.4,5.97,28.2,6.29,13.2,13.2,162.,11.9,706.,101.
1979-03-03 00:01:30.350 ,1979-03-03 00:01:53.920 ,7,1,13.4,5.97,39.3,7.30,35.5,20.5,123.,10.2,866.,111.
1979-03-03 00:01:54.350 ,1979-03-03 00:02:35.920 ,8,1,0.000E+00,0.000E+00,0.000E+00,0.000E+00,0.000E+00,0.000E+00,0.000E+00,0.000E+00,44.7,22.3
1979-03-03 00:02:35.980 ,1979-03-03 00:02:41.540 ,8,-1,0.000E+00,0.000E+00,0.000E+00,0.000E+00,0.000E+00,0.000E+00,0.000E+00,0.000E+00,0.000E+00,0.000E+00
1979-03-03 00:02:42.350 ,1979-03-03 00:03:05.920 ,7,-1,5.34,3.78,30.7,6.54,25.6,25.6,205.,15.7,975.,170.
1979-03-03 00:03:06.350 ,1979-03-03 00:03:29.920 ,6,-1,21.4,7.55,34.8,6.95,25.3,25.3,106.,7.71,838.,168.
1979-03-03 00:03:30.350 ,1979-03-03 00:03:53.920 ,5,-1,13.4,5.97,39.1,7.26,46.8,33.1,71.4,7.70,370.,103.
1979-03-03 00:03:54.350 ,1979-03-03 00:04:17.920 ,4,-1,2.67,2.67,18.2,5.04,0.000E+00,0.000E+00,32.5,5.27,144.,64.3
1979-03-03 00:04:18.350 ,1979-03-03 00:04:41.920 ,3,-1,24.0,8.01,11.3,3.76,0.000E+00,0.000E+00,1.69,0.974,0.000E+00,0.000E+00
1979-03-03 00:04:42.350 ,1979-03-03 00:05:05.920 ,2,-1,5.53,3.91,7.98,3.26,0.000E+00,0.000E+00,6.12,1.85,33.5,33.5
1979-03-03 00:05:05.980 ,1979-03-03 00:05:30.350 ,1,-1,7.75,7.75,15.9,7.95,8.09,8.09,26.7,5.44,172.,41.7
1979-03-03 00:05:30.350 ,1979-03-03 00:05:53.920 ,1,1,5.34,3.78,15.7,4.54,0.000E+00,0.000E+00,24.3,3.70,201.,82.1
1979-03-03 00:05:54.350 ,1979-03-03 00:06:17.920 ,2,1,0.000E+00,0.000E+00,2.50,1.77,0.000E+00,0.000E+00,13.0,3.35,124.,71.4
1979-03-03 00:06:18.350 ,1979-03-03 00:06:41.920 ,3,1,0.000E+00,0.000E+00,5.27,2.64,0.000E+00,0.000E+00,0.418,0.418,0.000E+00,0.000E+00
1979-03-03 00:06:42.350 ,1979-03-03 00:07:05.920 ,4,1,5.34,3.78,7.05,3.15,0.000E+00,0.000E+00,37.7,5.88,79.1,45.6
1979-03-03 00:07:06.360 ,1979-03-03 00:07:29.920 ,5,1,8.02,4.63,23.7,5.75,25.6,25.6,56.1,6.74,475.,115.
1979-03-03 00:07:30.360 ,1979-03-03 00:07:53.920 ,6,1,2.67,2.67,25.5,6.01,0.000E+00,0.000E+00,176.,14.3,907.,163.
1979-03-03 00:07:54.360 ,1979-03-03 00:08:17.920 ,7,1,5.34,3.78,24.3,6.07,0.000E+00,0.000E+00,161.,11.8,820.,152.
1979-03-03 00:08:18.360 ,1979-03-03 00:08:59.920 ,8,1,0.000E+00,0.000E+00,0.000E+00,0.000E+00,0.000E+00,0.000E+00,0.000E+00,0.000E+00,0.000E+00,0.000E+00
1979-03-03 00:08:59.980 ,1979-03-03 00:09:05.920 ,8,-1,0.000E+00,0.000E+00,0.000E+00,0.000E+00,0.000E+00,0.000E+00,0.000E+00,0.000E+00,0.000E+00,0.000E+00
1979-03-03 00:09:06.350 ,1979-03-03 00:09:29.920 ,7,-1,8.02,4.63,28.0,6.27,77.9,45.0,111.,9.16,-1.00,-1.00
1979-03-03 00:09:30.350 ,1979-03-03 00:09:53.920 ,6,-1,0.000E+00,0.000E+00,15.7,4.74,58.9,41.6,91.1,7.13,704.,154.
1979-03-03 00:09:54.350 ,1979-03-03 00:10:17.920 ,5,-1,5.34,3.78,9.98,3.77,28.3,28.3,56.8,7.04,182.,68.8
1979-03-03 00:10:18.350 ,1979-03-03 00:10:41.920 ,4,-1,0.000E+00,0.000E+00,13.6,4.09,0.000E+00,0.000E+00,18.1,3.95,48.3,34.1
1979-03-03 00:10:42.350 ,1979-03-03 00:11:05.920 ,3,-1,0.000E+00,0.000E+00,2.54,1.79,0.000E+00,0.000E+00,0.000E+00,0.000E+00,0.000E+00,0.000E+00
1979-03-03 00:11:06.350 ,1979-03-03 00:11:29.920 ,2,-1,0.000E+00,0.000E+00,2.09,1.48,0.000E+00,0.000E+00,1.51,0.871,0.000E+00,0.000E+00
1979-03-03 00:11:29.980 ,1979-03-03 00:11:54.350 ,1,-1,0.000E+00,0.000E+00,8.50,6.01,0.000E+00,0.000E+00,18.8,4.56,103.,30.9
1979-03-03 00:11:54.350 ,1979-03-03 00:12:17.920 ,1,1,0.000E+00,0.000E+00,11.8,3.94,0.000E+00,0.000E+00,21.2,3.44,235.,88.6
1979-03-03 00:12:18.350 ,1979-03-03 00:12:41.920 ,2,1,2.67,2.67,0.000E+00,0.000E+00,0.000E+00,0.000E+00,2.48,1.24,33.5,33.5
1979-03-03 00:12:42.350 ,1979-03-03 00:13:05.920 ,3,1,0.000E+00,0.000E+00,1.18,1.18,0.000E+00,0.000E+00,0.000E+00,0.000E+00,0.000E+00,0.000E+00
1979-03-03 00:13:06.350 ,1979-03-03 00:13:29.920 ,4,1,5.34,3.78,6.95,3.11,0.000E+00,0.000E+00,16.6,3.81,231.,87.4
1979-03-03 00:13:30.350 ,1979-03-03 00:13:53.920 ,5,1,0.000E+00,0.000E+00,4.29,2.48,29.5,29.5,39.7,4.85,268.,94.8
1979-03-03 00:13:54.350 ,1979-03-03 00:14:17.920 ,6,1,0.000E+00,0.000E+00,4.17,2.40,0.000E+00,0.000E+00,137.,11.1,1.182E+03,194.
1979-03-03 00:14:18.350 ,1979-03-03 00:14:41.920 ,7,1,8.02,4.63,0.975,0.975,15.7,15.7,122.,10.3,721.,147.
1979-03-03 00:14:42.350 ,1979-03-03 00:15:23.920 ,8,1,0.000E+00,0.000E+00,0.000E+00,0.000E+00,0.000E+00,0.000E+00,0.000E+00,0.000E+00,0.000E+00,0.000E+00
1979-03-03 00:15:23.980 ,1979-03-03 00:15:29.920 ,8,-1,0.000E+00,0.000E+00,0.000E+00,0.000E+00,0.000E+00,0.000E+00,0.000E+00,0.000E+00,0.000E+00,0.000E+00
1979-03-03 00:15:30.350 ,1979-03-03 00:15:53.920 ,7,-1,0.000E+00,0.000E+00,2.73,1.93,37.9,37.9,92.8,8.47,771.,161.
1979-03-03 00:15:54.350 ,1979-03-03 00:16:17.920 ,6,-1,0.000E+00,0.000E+00,1.35,1.35,77.8,55.0,96.7,9.29,365.,97.6
1979-03-03 00:16:18.350 ,1979-03-03 00:16:41.920 ,5,-1,0.000E+00,0.000E+00,1.42,1.42,0.000E+00,0.000E+00,52.7,6.91,186.,70.4
1979-03-03 00:16:42.350 ,1979-03-03 00:17:05.920 ,4,-1,0.000E+00,0.000E+00,9.91,3.50,0.000E+00,0.000E+00,13.4,3.47,24.9,24.9
1979-03-03 00:17:06.350 ,1979-03-03 00:17:29.920 ,3,-1,0.000E+00,0.000E+00,0.000E+00,0.000E+00,0.000E+00,0.000E+00,0.000E+00,0.000E+00,0.000E+00,0.000E+00
1979-03-03 00:17:30.350 ,1979-03-03 00:17:53.920 ,2,-1,0.000E+00,0.000E+00,3.30,1.90,0.000E+00,0.000E+00,0.000E+00,0.000E+00,0.000E+00,0.000E+00
1979-03-03 00:17:53.980 ,1979-03-03 00:18:18.350 ,1,-1,7.75,7.75,11.1,6.42,7.08,7.08,26.6,5.80,113.,34.1
1979-03-03 00:18:18.350 ,1979-03-03 00:18:41.920 ,1,1,2.67,2.67,4.24,2.45,0.000E+00,0.000E+00,20.7,3.54,67.0,47.4
1979-03-03 00:18:42.350 ,1979-03-03 00:19:05.920 ,2,1,2.67,2.67,5.67,2.54,0.000E+00,0.000E+00,2.15,1.24,0.000E+00,0.000E+00
1979-03-03 00:19:06.350 ,1979-03-03 00:19:29.920 ,3,1,0.000E+00,0.000E+00,3.30,1.90,0.000E+00,0.000E+00,0.000E+00,0.000E+00,0.000E+00,0.000E+00
1979-03-03 00:19:30.350 ,1979-03-03 00:19:53.920 ,4,1,0.000E+00,0.000E+00,1.42,1.42,0.000E+00,0.000E+00,14.1,3.53,25.1,25.1
1979-03-03 00:19:54.350 ,1979-03-03 00:20:17.920 ,5,1,0.000E+00,0.000E+00,2.86,2.02,29.1,29.1,36.1,5.70,183.,69.0
1979-03-03 00:20:18.350 ,1979-03-03 00:20:41.920 ,6,1,0.000E+00,0.000E+00,0.000E+00,0.000E+00,0.000E+00,0.000E+00,74.4,8.37,330.,95.2
1979-03-03 00:20:42.350 ,1979-03-03 00:21:05.920 ,7,1,0.000E+00,0.000E+00,0.000E+00,0.000E+00,0.000E+00,0.000E+00,88.7,9.24,453.,113.
1979-03-03 00:21:06.350 ,1979-03-03 00:21:47.920 ,8,1,0.000E+00,0.000E+00,0.000E+00,0.000E+00,0.000E+00,0.000E+00,0.000E+00,0.000E+00,0.000E+00,0.000E+00
1979-03-03 00:21:47.980 ,1979-03-03 00:21:53.920 ,8,-1,0.000E+00,0.000E+00,0.000E+00,0.000E+00,0.000E+00,0.000E+00,0.000E+00,0.000E+00,0.000E+00,0.000E+00
1979-03-03 00:21:54.350 ,1979-03-03 00:22:17.920 ,7,-1,0.000E+00,0.000E+00,1.24,1.24,0.000E+00,0.000E+00,38.8,5.48,737.,157.
1979-03-03 00:22:18.350 ,1979-03-03 00:22:41.920 ,6,-1,0.000E+00,0.000E+00,1.38,1.38,24.6,24.6,75.3,8.47,211.,74.7
1979-03-03 00:22:42.350 ,1979-03-03 00:23:05.920 ,5,-1,0.000E+00,0.000E+00,2.86,2.02,0.000E+00,0.000E+00,39.2,6.04,349.,105.
1979-03-03 00:23:06.350 ,1979-03-03 00:23:29.920 ,4,-1,0.000E+00,0.000E+00,4.12,2.38,0.000E+00,0.000E+00,15.1,3.78,29.1,29.1
1979-03-03 00:23:30.350 ,1979-03-03 00:23:53.920 ,3,-1,2.67,2.67,0.000E+00,0.000E+00,0.000E+00,0.000E+00,0.000E+00,0.000E+00,0.000E+00,0.000E+00
1979-03-03 00:23:54.350 ,1979-03-03 00:24:17.920 ,2,-1,0.000E+00,0.000E+00,1.08,1.08,0.000E+00,0.000E+00,0.000E+00,0.000E+00,0.000E+00,0.000E+00
1979-03-03 00:24:17.980 ,1979-03-03 00:24:42.350 ,1,-1,0.000E+00,0.000E+00,12.5,6.23,0.000E+00,0.000E+00,17.4,4.65,109.,34.5
1979-03-03 00:24:42.350 ,1979-03-03 00:25:05.920 ,1,1,2.67,2.67,5.15,2.57,0.000E+00,0.000E+00,12.2,2.73,67.0,47.4
1979-03-03 00:25:06.350 ,1979-03-03 00:25:23.920 ,2,1,3.69,3.69,1.35,1.35,-1.00,-1.00,0.000E+00,0.000E+00,-1.00,-1.00
1979-03-03 00:25:23.980 ,1979-03-03 00:25:47.980 ,9,0,0.000E+00,0.000E+00,1.21,1.21,0.000E+00,0.000E+00,0.000E+00,0.000E+00,0.000E+00,0.000E+00
1979-03-03 00:25:47.980 ,1979-03-03 00:26:11.980 ,9,0,0.000E+00,0.000E+00,1.37,1.37,0.000E+00,0.000E+00,1.30,0.922,30.9,21.8
1979-03-03 00:26:11.980 ,1979-03-03 00:26:17.920 ,4,1,0.000E+00,0.000E+00,0.000E+00,0.000E+00,0.000E+00,0.000E+00,4.96,3.51,0.000E+00,0.000E+00
1979-03-03 00:26:18.350 ,1979-03-03 00:26:41.920 ,5,1,0.000E+00,0.000E+00,4.15,2.40,0.000E+00,0.000E+00,36.2,5.79,151.,45.4
1979-03-03 00:26:42.350 ,1979-03-03 00:27:05.920 ,6,1,0.000E+00,0.000E+00,1.38,1.38,0.000E+00,0.000E+00,43.1,6.42,242.,57.0
1979-03-03 00:27:06.350 ,1979-03-03 00:27:29.920 ,7,1,0.000E+00,0.000E+00,0.000E+00,0.000E+00,0.000E+00,0.000E+00,69.9,8.18,529.,88.2
1979-03-03 00:27:30.350 ,1979-03-03 00:28:11.920 ,8,1,0.000E+00,0.000E+00,0.000E+00,0.000E+00,0.000E+00,0.000E+00,0.282,0.282,11.2,11.2
1979-03-03 00:28:11.980 ,1979-03-03 00:28:17.920 ,8,-1,0.000E+00,0.000E+00,0.000E+00,0.000E+00,0.000E+00,0.000E+00,0.000E+00,0.000E+00,0.000E+00,0.000E+00
1979-03-03 00:28:18.350 ,1979-03-03 00:28:41.920 ,7,-1,0.000E+00,0.000E+00,1.42,1.42,0.000E+00,0.000E+00,40.0,5.71,469.,125.
1979-03-03 00:28:42.350 ,1979-03-03 00:29:05.920 ,6,-1,0.000E+00,0.000E+00,4.86,2.43,0.000E+00,0.000E+00,69.0,8.18,209.,73.7
1979-03-03 00:29:06.350 ,1979-03-03 00:29:29.920 ,5,-1,0.000E+00,0.000E+00,4.25,2.45,0.000E+00,0.000E+00,29.0,5.20,106.,53.2
1979-03-03 00:29:30.350 ,1979-03-03 00:29:53.920 ,4,-1,0.000E+00,0.000E+00,1.36,1.36,0.000E+00,0.000E+00,2.58,1.49,38.3,38.3
1979-03-03 00:29:54.350 ,1979-03-03 00:30:17.920 ,3,-1,0.000E+00,0.000E+00,0.000E+00,0.000E+00,0.000E+00,0.000E+00,0.000E+00,0.000E+00,0.000E+00,0.000E+00
1979-03-03 00:30:18.350 ,1979-03-03 00:30:41.920 ,2,-1,2.67,2.67,2.24,1.59,0.000E+00,0.000E+00,0.000E+00,0.000E+00,0.000E+00,0.000E+00
1979-03-03 00:30:41.980 ,1979-03-03 00:31:06.350 ,1,-1,0.000E+00,0.000E+00,7.15,5.06,0.000E+00,0.000E+00,5.56,2.49,134.,38.7
1979-03-03 00:31:06.350 ,1979-03-03 00:31:29.920 ,1,1,0.000E+00,0.000E+00,2.61,1.84,0.000E+00,0.000E+00,14.3,2.98,67.0,47.4
1979-03-03 00:31:30.350 ,1979-03-03 00:31:53.920 ,2,1,2.67,2.67,2.09,1.48,0.000E+00,0.000E+00,0.000E+00,0.000E+00,0.000E+00,0.000E+00
1979-03-03 00:31:54.350 ,1979-03-03 00:32:17.920 ,3,1,2.67,2.67,1.81,1.28,0.000E+00,0.000E+00,0.000E+00,0.000E+00,0.000E+00,0.000E+00
1979-03-03 00:32:18.350 ,1979-03-03 00:32:41.920 ,4,1,0.000E+00,0.000E+00,1.40,1.40,0.000E+00,0.000E+00,2.53,1.26,0.000E+00,0.000E+00
1979-03-03 00:32:42.350 ,1979-03-03 00:33:05.920 ,5,1,0.000E+00,0.000E+00,4.15,2.40,0.000E+00,0.000E+00,31.1,5.41,79.1,45.6
1979-03-03 00:33:06.350 ,1979-03-03 00:33:29.920 ,6,1,2.67,2.67,0.975,0.975,0.000E+00,0.000E+00,57.7,7.51,296.,89.1
1979-03-03 00:33:30.350 ,1979-03-03 00:33:53.920 ,7,1,0.000E+00,0.000E+00,2.09,1.48,0.000E+00,0.000E+00,59.2,7.52,323.,93.3
1979-03-03 00:33:54.350 ,1979-03-03 00:34:35.920 ,8,1,0.000E+00,0.000E+00,0.000E+00,0.000E+00,0.000E+00,0.000E+00,0.282,0.282,0.000E+00,0.000E+00
1979-03-03 00:34:35.980 ,1979-03-03 00:34:41.920 ,8,-1,0.000E+00,0.000E+00,0.000E+00,0.000E+00,0.000E+00,0.000E+00,0.000E+00,0.000E+00,0.000E+00,0.000E+00
1979-03-03 00:34:42.350 ,1979-03-03 00:35:05.920 ,7,-1,0.000E+00,0.000E+00,0.975,0.975,0.000E+00,0.000E+00,40.5,5.78,637.,146.
1979-03-03 00:35:06.350 ,1979-03-03 00:35:29.920 ,6,-1,0.000E+00,0.000E+00,0.000E+00,0.000E+00,0.000E+00,0.000E+00,44.9,6.55,363.,101.
1979-03-03 00:35:30.350 ,1979-03-03 00:35:53.920 ,5,-1,0.000E+00,0.000E+00,2.84,2.01,27.5,27.5,28.9,5.27,137.,61.4
1979-03-03 00:35:54.350 ,1979-03-03 00:36:17.920 ,4,-1,0.000E+00,0.000E+00,4.49,2.24,0.000E+00,0.000E+00,3.84,1.92,38.3,38.3
1979-03-03 00:36:18.350 ,1979-03-03 00:36:41.920 ,3,-1,0.000E+00,0.000E+00,2.46,1.42,0.000E+00,0.000E+00,0.000E+00,0.000E+00,0.000E+00,0.000E+00
1979-03-03 00:36:42.350 ,1979-03-03 00:37:05.920 ,2,-1,0.000E+00,0.000E+00,0.000E+00,0.000E+00,0.000E+00,0.000E+00,0.000E+00,0.000E+00,0.000E+00,0.000E+00
1979-03-03 00:37:05.980 ,1979-03-03 00:37:30.350 ,1,-1,0.000E+00,0.000E+00,2.83,2.83,0.000E+00,0.000E+00,14.1,4.24,154.,42.6
1979-03-03 00:37:30.350 ,1979-03-03 00:37:53.920 ,1,1,0.000E+00,0.000E+00,4.08,2.35,0.000E+00,0.000E+00,15.0,3.05,168.,74.9
1979-03-03 00:37:54.350 ,1979-03-03 00:38:17.920 ,2,1,0.000E+00,0.000E+00,2.24,1.59,0.000E+00,0.000E+00,0.000E+00,0.000E+00,0.000E+00,0.000E+00
1979-03-03 00:38:18.350 ,1979-03-03 00:38:41.920 ,3,1,0.000E+00,0.000E+00,2.24,1.59,0.000E+00,0.000E+00,0.000E+00,0.000E+00,0.000E+00,0.000E+00
1979-03-03 00:38:42.350 ,1979-03-03 00:39:05.920 ,4,1,0.000E+00,0.000E+00,3.30,1.90,0.000E+00,0.000E+00,5.18,1.83,0.000E+00,0.000E+00
1979-03-03 00:39:06.350 ,1979-03-03 00:39:29.920 ,5,1,0.000E+00,0.000E+00,1.40,1.40,0.000E+00,0.000E+00,20.8,4.44,202.,76.3
1979-03-03 00:39:30.350 ,1979-03-03 00:39:53.920 ,6,1,0.000E+00,0.000E+00,0.000E+00,0.000E+00,0.000E+00,0.000E+00,44.8,6.61,127.,56.9
1979-03-03 00:39:54.350 ,1979-03-03 00:40:17.920 ,7,1,0.000E+00,0.000E+00,0.000E+00,0.000E+00,0.000E+00,0.000E+00,33.5,5.66,240.,79.8
1979-03-03 00:40:18.350 ,1979-03-03 00:40:59.920 ,8,1,0.000E+00,0.000E+00,0.565,0.565,0.000E+00,0.000E+00,0.000E+00,0.000E+00,0.000E+00,0.000E+00
1979-03-03 00:40:59.980 ,1979-03-03 00:41:05.920 ,8,-1,0.000E+00,0.000E+00,0.000E+00,0.000E+00,0.000E+00,0.000E+00,0.000E+00,0.000E+00,0.000E+00,0.000E+00
1979-03-03 00:41:06.350 ,1979-03-03 00:41:29.920 ,7,-1,0.000E+00,0.000E+00,0.000E+00,0.000E+00,0.000E+00,0.000E+00,31.5,4.46,302.,101.
1979-03-03 00:41:30.350 ,1979-03-03 00:41:53.920 ,6,-1,0.000E+00,0.000E+00,0.000E+00,0.000E+00,15.7,15.7,39.5,6.16,211.,74.7
1979-03-03 00:41:54.350 ,1979-03-03 00:42:17.920 ,5,-1,0.000E+00,0.000E+00,2.43,1.72,0.000E+00,0.000E+00,23.7,4.84,50.1,35.4
1979-03-03 00:42:18.350 ,1979-03-03 00:42:41.920 ,4,-1,2.67,2.67,1.41,1.41,0.000E+00,0.000E+00,1.13,0.802,0.000E+00,0.000E+00
1979-03-03 00:42:42.350 ,1979-03-03 00:43:05.920 ,3,-1,0.000E+00,0.000E+00,3.61,1.81,0.000E+00,0.000E+00,0.000E+00,0.000E+00,0.000E+00,0.000E+00
1979-03-03 00:43:06.350 ,1979-03-03 00:43:29.920 ,2,-1,2.67,2.67,1.24,1.24,0.000E+00,0.000E+00,0.000E+00,0.000E+00,0.000E+00,0.000E+00
1979-03-03 00:43:29.980 ,1979-03-03 00:43:54.350 ,1,-1,0.000E+00,0.000E+00,5.16,3.65,0.000E+00,0.000E+00,10.4,3.66,68.8,28.1
1979-03-03 00:43:54.350 ,1979-03-03 00:44:17.920 ,1,1,0.000E+00,0.000E+00,0.000E+00,0.000E+00,0.000E+00,0.000E+00,12.6,2.81,134.,67.0
1979-03-03 00:44:18.350 ,1979-03-03 00:44:41.920 ,2,1,0.000E+00,0.000E+00,1.81,1.28,0.000E+00,0.000E+00,0.000E+00,0.000E+00,0.000E+00,0.000E+00
1979-03-03 00:44:42.350 ,1979-03-03 00:45:05.920 ,3,1,0.000E+00,0.000E+00,2.09,1.48,0.000E+00,0.000E+00,0.000E+00,0.000E+00,0.000E+00,0.000E+00
1979-03-03 00:45:06.350 ,1979-03-03 00:45:29.920 ,4,1,0.000E+00,0.000E+00,3.94,1.97,0.000E+00,0.000E+00,4.85,2.17,26.6,26.6
1979-03-03 00:45:30.350 ,1979-03-03 00:45:53.920 ,5,1,0.000E+00,0.000E+00,2.49,1.76,0.000E+00,0.000E+00,14.3,3.70,50.5,35.7
1979-03-03 00:45:54.350 ,1979-03-03 00:46:17.920 ,6,1,0.000E+00,0.000E+00,1.04,1.04,0.000E+00,0.000E+00,36.5,6.00,239.,79.5
1979-03-03 00:46:18.350 ,1979-03-03 00:46:41.920 ,7,1,2.67,2.67,0.000E+00,0.000E+00,0.000E+00,0.000E+00,15.4,3.85,48.9,34.6
1979-03-03 00:46:42.350 ,1979-03-03 00:47:23.920 ,8,1,0.000E+00,0.000E+00,0.000E+00,0.000E+00,0.000E+00,0.000E+00,0.000E+00,0.000E+00,0.000E+00,0.000E+00
1979-03-03 00:47:23.980 ,1979-03-03 00:47:29.920 ,8,-1,0.000E+00,0.000E+00,0.000E+00,0.000E+00,0.000E+00,0.000E+00,0.000E+00,0.000E+00,0.000E+00,0.000E+00
1979-03-03 00:47:30.350 ,1979-03-03 00:47:53.920 ,7,-1,0.000E+00,0.000E+00,1.04,1.04,0.000E+00,0.000E+00,19.5,4.48,76.4,44.1
1979-03-03 00:47:54.350 ,1979-03-03 00:48:17.920 ,6,-1,0.000E+00,0.000E+00,1.81,1.28,0.000E+00,0.000E+00,33.0,5.75,71.2,41.1
1979-03-03 00:48:18.350 ,1979-03-03 00:48:41.920 ,5,-1,0.000E+00,0.000E+00,0.000E+00,0.000E+00,0.000E+00,0.000E+00,11.5,3.33,171.,76.5
1979-03-03 00:48:42.350 ,1979-03-03 00:49:05.920 ,4,-1,0.000E+00,0.000E+00,0.000E+00,0.000E+00,0.000E+00,0.000E+00,0.000E+00,0.000E+00,33.5,33.5
1979-03-03 00:49:06.350 ,1979-03-03 00:49:29.920 ,3,-1,0.000E+00,0.000E+00,0.000E+00,0.000E+00,0.000E+00,0.000E+00,0.000E+00,0.000E+00,0.000E+00,0.000E+00
1979-03-03 00:49:30.350 ,1979-03-03 00:49:53.920 ,2,-1,0.000E+00,0.000E+00,2.43,1.72,0.000E+00,0.000E+00,0.000E+00,0.000E+00,0.000E+00,0.000E+00
1979-03-03 00:49:53.980 ,1979-03-03 00:50:18.350 ,1,-1,0.000E+00,0.000E+00,2.99,2.99,0.000E+00,0.000E+00,3.49,2.02,90.5,32.0
1979-03-03 00:50:18.350 ,1979-03-03 00:50:41.920 ,1,1,0.000E+00,0.000E+00,2.43,1.72,0.000E+00,0.000E+00,9.27,2.39,33.5,33.5
1979-03-03 00:50:42.350 ,1979-03-03 00:51:05.920 ,2,1,0.000E+00,0.000E+00,1.81,1.28,0.000E+00,0.000E+00,0.000E+00,0.000E+00,0.000E+00,0.000E+00
1979-03-03 00:51:06.350 ,1979-03-03 00:51:29.920 ,3,1,0.000E+00,0.000E+00,0.000E+00,0.000E+00,0.000E+00,0.000E+00,0.000E+00,0.000E+00,0.000E+00,0.000E+00
1979-03-03 00:51:30.350 ,1979-03-03 00:51:53.920 ,4,1,0.000E+00,0.000E+00,2.24,1.59,18.0,18.0,0.554,0.554,0.000E+00,0.000E+00
1979-03-03 00:51:54.350 ,1979-03-03 00:52:17.920 ,5,1,0.000E+00,0.000E+00,1.18,1.18,0.000E+00,0.000E+00,14.2,3.79,173.,70.5
1979-03-03 00:52:18.350 ,1979-03-03 00:52:41.920 ,6,1,0.000E+00,0.000E+00,0.000E+00,0.000E+00,0.000E+00,0.000E+00,26.2,5.03,44.7,31.6
1979-03-03 00:52:42.350 ,1979-03-03 00:53:05.920 ,7,1,0.000E+00,0.000E+00,0.000E+00,0.000E+00,0.000E+00,0.000E+00,7.70,2.72,49.9,35.3
1979-03-03 00:53:06.350 ,1979-03-03 00:53:47.920 ,8,1,0.000E+00,0.000E+00,0.000E+00,0.000E+00,0.000E+00,0.000E+00,0.000E+00,0.000E+00,0.000E+00,0.000E+00
1979-03-03 00:53:47.980 ,1979-03-03 00:53:53.920 ,8,-1,0.000E+00,0.000E+00,0.000E+00,0.000E+00,0.000E+00,0.000E+00,0.000E+00,0.000E+00,0.000E+00,0.000E+00
1979-03-03 00:53:54.350 ,1979-03-03 00:54:17.920 ,7,-1,0.000E+00,0.000E+00,1.81,1.28,0.000E+00,0.000E+00,7.94,2.81,78.4,45.3
1979-03-03 00:54:18.350 ,1979-03-03 00:54:41.920 ,6,-1,0.000E+00,0.000E+00,1.04,1.04,0.000E+00,0.000E+00,43.4,6.85,130.,58.0
1979-03-03 00:54:42.350 ,1979-03-03 00:55:05.920 ,5,-1,0.000E+00,0.000E+00,3.61,1.81,0.000E+00,0.000E+00,8.77,2.92,24.4,24.4
1979-03-03 00:55:06.350 ,1979-03-03 00:55:29.920 ,4,-1,0.000E+00,0.000E+00,3.13,1.81,0.000E+00,0.000E+00,0.000E+00,0.000E+00,0.000E+00,0.000E+00
1979-03-03 00:55:30.350 ,1979-03-03 00:55:53.920 ,3,-1,0.000E+00,0.000E+00,2.33,1.65,0.000E+00,0.000E+00,0.000E+00,0.000E+00,0.000E+00,0.000E+00
1979-03-03 00:55:54.350 ,1979-03-03 00:56:17.920 ,2,-1,0.000E+00,0.000E+00,3.03,1.75,0.000E+00,0.000E+00,0.000E+00,0.000E+00,0.000E+00,0.000E+00
1979-03-03 00:56:17.980 ,1979-03-03 00:56:42.350 ,1,-1,0.000E+00,0.000E+00,2.99,2.99,0.000E+00,0.000E+00,9.24,3.49,70.9,28.9
1979-03-03 00:56:42.350 ,1979-03-03 00:57:05.920 ,1,1,0.000E+00,0.000E+00,1.81,1.28,0.000E+00,0.000E+00,5.06,1.79,0.000E+00,0.000E+00
1979-03-03 00:57:06.350 ,1979-03-03 00:57:29.920 ,2,1,0.000E+00,0.000E+00,1.81,1.28,0.000E+00,0.000E+00,0.000E+00,0.000E+00,0.000E+00,0.000E+00
1979-03-03 00:57:30.350 ,1979-03-03 00:57:53.920 ,3,1,0.000E+00,0.000E+00,0.000E+00,0.000E+00,0.000E+00,0.000E+00,0.000E+00,0.000E+00,0.000E+00,0.000E+00
1979-03-03 00:57:54.350 ,1979-03-03 00:58:17.920 ,4,1,0.000E+00,0.000E+00,1.04,1.04,0.000E+00,0.000E+00,0.988,0.699,0.000E+00,0.000E+00
1979-03-03 00:58:18.350 ,1979-03-03 00:58:41.920 ,5,1,0.000E+00,0.000E+00,2.09,1.48,0.000E+00,0.000E+00,8.85,2.95,23.4,23.4
1979-03-03 00:58:42.350 ,1979-03-03 00:59:05.920 ,6,1,0.000E+00,0.000E+00,1.18,1.18,0.000E+00,0.000E+00,16.5,4.01,49.3,34.8
1979-03-03 00:59:06.350 ,1979-03-03 00:59:29.920 ,7,1,0.000E+00,0.000E+00,0.000E+00,0.000E+00,0.000E+00,0.000E+00,15.3,3.95,141.,63.1
1979-03-03 00:59:30.350 ,1979-03-03 00:00:11.920 ,8,1,0.000E+00,0.000E+00,0.000E+00,0.000E+00,0.000E+00,0.000E+00,0.000E+00,0.000E+00,0.000E+00,0.000E+00
1979-03-03 01:00:11.980 ,1979-03-03 01:00:17.920 ,8,-1,0.000E+00,0.000E+00,0.000E+00,0.000E+00,0.000E+00,0.000E+00,0.000E+00,0.000E+00,0.000E+00,0.000E+00
1979-03-03 01:00:18.350 ,1979-03-03 01:00:41.920 ,7,-1,0.000E+00,0.000E+00,1.95,1.38,0.000E+00,0.000E+00,16.1,4.02,145.,65.0
1979-03-03 01:00:42.350 ,1979-03-03 01:01:05.920 ,6,-1,0.000E+00,0.000E+00,0.000E+00,0.000E+00,0.000E+00,0.000E+00,20.5,4.48,241.,85.2
1979-03-03 01:01:06.360 ,1979-03-03 01:01:29.920 ,5,-1,0.000E+00,0.000E+00,1.32,1.32,0.000E+00,0.000E+00,14.1,3.76,78.1,45.1
1979-03-03 01:01:30.360 ,1979-03-03 01:01:53.920 ,4,-1,2.67,2.67,1.18,1.18,0.000E+00,0.000E+00,0.000E+00,0.000E+00,33.5,33.5
1979-03-03 01:01:54.360 ,1979-03-03 01:02:17.920 ,3,-1,2.67,2.67,1.24,1.24,0.000E+00,0.000E+00,0.000E+00,0.000E+00,0.000E+00,0.000E+00
1979-03-03 01:02:18.350 ,1979-03-03 01:02:41.920 ,2,-1,0.000E+00,0.000E+00,0.000E+00,0.000E+00,0.000E+00,0.000E+00,0.000E+00,0.000E+00,0.000E+00,0.000E+00
1979-03-03 01:02:41.980 ,1979-03-03 01:03:06.350 ,1,-1,7.75,7.75,0.000E+00,0.000E+00,0.000E+00,0.000E+00,0.000E+00,0.000E+00,29.9,17.3
1979-03-03 01:03:06.350 ,1979-03-03 01:03:29.920 ,1,1,0.000E+00,0.000E+00,1.04,1.04,0.000E+00,0.000E+00,1.85,1.07,33.5,33.5
1979-03-03 01:03:30.350 ,1979-03-03 01:03:53.920 ,2,1,0.000E+00,0.000E+00,1.37,1.37,-1.00,-1.00,0.000E+00,0.000E+00,0.000E+00,0.000E+00
1979-03-03 01:03:54.350 ,1979-03-03 01:04:17.920 ,3,1,0.000E+00,0.000E+00,1.04,1.04,0.000E+00,0.000E+00,0.000E+00,0.000E+00,0.000E+00,0.000E+00
1979-03-03 01:04:18.360 ,1979-03-03 01:04:41.920 ,4,1,0.000E+00,0.000E+00,2.09,1.48,0.000E+00,0.000E+00,1.94,1.12,0.000E+00,0.000E+00
1979-03-03 01:04:42.360 ,1979-03-03 01:05:05.920 ,5,1,5.34,3.78,1.18,1.18,0.000E+00,0.000E+00,7.77,2.75,77.2,44.6
1979-03-03 01:05:06.360 ,1979-03-03 01:05:29.920 ,6,1,0.000E+00,0.000E+00,0.000E+00,0.000E+00,0.000E+00,0.000E+00,13.4,3.72,50.3,35.6
1979-03-03 01:05:30.360 ,1979-03-03 01:05:53.920 ,7,1,0.000E+00,0.000E+00,0.000E+00,0.000E+00,0.000E+00,0.000E+00,14.0,3.73,149.,66.4
1979-03-03 01:05:54.360 ,1979-03-03 01:06:35.920 ,8,1,0.000E+00,0.000E+00,0.000E+00,0.000E+00,0.000E+00,0.000E+00,0.282,0.282,0.000E+00,0.000E+00
1979-03-03 01:06:35.980 ,1979-03-03 01:06:41.920 ,8,-1,0.000E+00,0.000E+00,0.000E+00,0.000E+00,0.000E+00,0.000E+00,0.000E+00,0.000E+00,0.000E+00,0.000E+00
1979-03-03 01:06:42.360 ,1979-03-03 01:07:05.920 ,7,-1,0.000E+00,0.000E+00,1.81,1.28,0.000E+00,0.000E+00,17.7,4.29,25.4,25.4
1979-03-03 01:07:06.360 ,1979-03-03 01:07:29.920 ,6,-1,0.000E+00,0.000E+00,0.000E+00,0.000E+00,0.000E+00,0.000E+00,7.63,2.70,50.8,35.9
1979-03-03 01:07:30.360 ,1979-03-03 01:07:53.920 ,5,-1,5.34,3.78,5.55,2.48,0.000E+00,0.000E+00,7.03,2.66,193.,72.8
1979-03-03 01:07:54.360 ,1979-03-03 01:08:17.920 ,4,-1,0.000E+00,0.000E+00,1.04,1.04,0.000E+00,0.000E+00,0.000E+00,0.000E+00,0.000E+00,0.000E+00
1979-03-03 01:08:18.360 ,1979-03-03 01:08:41.920 ,3,-1,0.000E+00,0.000E+00,2.89,1.67,0.000E+00,0.000E+00,0.000E+00,0.000E+00,0.000E+00,0.000E+00
1979-03-03 01:08:42.350 ,1979-03-03 01:09:05.920 ,2,-1,0.000E+00,0.000E+00,3.53,2.04,0.000E+00,0.000E+00,0.000E+00,0.000E+00,0.000E+00,0.000E+00
1979-03-03 01:09:05.980 ,1979-03-03 01:09:30.350 ,1,-1,0.000E+00,0.000E+00,2.83,2.83,0.000E+00,0.000E+00,0.000E+00,0.000E+00,29.1,16.8
1979-03-03 01:09:30.350 ,1979-03-03 01:09:53.920 ,1,1,0.000E+00,0.000E+00,0.000E+00,0.000E+00,0.000E+00,0.000E+00,2.66,1.33,33.5,33.5
1979-03-03 01:09:54.350 ,1979-03-03 01:10:17.920 ,2,1,0.000E+00,0.000E+00,1.95,1.38,0.000E+00,0.000E+00,0.000E+00,0.000E+00,0.000E+00,0.000E+00
1979-03-03 01:10:18.350 ,1979-03-03 01:10:41.920 ,3,1,0.000E+00,0.000E+00,1.32,1.32,0.000E+00,0.000E+00,0.000E+00,0.000E+00,0.000E+00,0.000E+00
1979-03-03 01:10:42.350 ,1979-03-03 01:11:05.920 ,4,1,2.67,2.67,1.18,1.18,0.000E+00,0.000E+00,1.29,0.915,0.000E+00,0.000E+00